Location: Ferintosh
(52.7647°N, 112.9692°W)
Time: 15:51:02
(UTC+00:00)

Transit 2A Rocket - Pass Details

Date: 22 May 2024
Orbit: 583 x 910 km, 66.7° (Epoch: 22 June)

Event Time Altitude Azimuth Distance (km) Brightness Sun altitude
Rises 20:25:50 0° 317° (NW) 3,408 8.2 56.0°
Reaches altitude 10° 20:28:23 10° 310° (NW) 2,509 7.7 55.8°
Maximum altitude 20:33:45 38° 244° (WSW) 1,330 7.5 55.5°
Drops below altitude 10° 20:39:17 10° 178° (S) 2,589 8.4 55.1°
Sets 20:41:58 0° 171° (S) 3,528 8.8 54.9°
